[[{"header":{"parameterUnit":"m.s-1","parameterCategory":2,"la1":30.2991,"la2":30.254,"lo1":-89.0895,"lo2":-89.0444,"dy":0.0017,"dx":0.0017,"nx":28,"ny":28,"refTime":"2024-11-29T09:00:00:Z","depth":"0","parameterNumber":2,"parameterNumberName":"U-component_of_CURRENTS"},"data":[0,0,0,0,0,0,0,0,0,0,0,0,0,0,0,0,0,0,0,0,0,0,0,0,0,0,0,0,0,0,0,0,0,0,0,0,0,0,0,0,0,0,0,0,0,0,0,0,0,0,0,0,0,0,0,0,0,0,-0.2181,-0.2181,0,-0.2185,-0.2185,-0.2185,-0.2164,-0.2163,-0.2163,-0.2162,-0.2148,-0.2148,-0.2148,0,0,0,0,0,0,0,0,0,0,0,0,0,-0.2162,-0.2162,-0.2181,-0.2181,-0.2181,-0.2185,-0.2185,-0.2185,-0.2164,-0.2163,-0.2163,-0.2162,-0.2148,-0.2148,-0.2148,0,0,0,0,0,0,0,0,0,0,0,0,0,-0.2167,-0.2162,-0.2181,-0.2172,-0.2171,-0.2185,-0.2185,-0.2185,-0.2164,-0.2163,-0.2162,-0.2162,-0.2148,-0.2148,-0.2148,-0.2163,0,0,-0.2148,-0.2148,0,0,0,0,0,0,0,0,-0.2167,-0.2167,-0.2173,-0.2173,-0.2172,-0.2174,-0.2173,-0.2177,-0.2164,-0.2165,-0.2162,-0.2161,-0.2156,-0.2156,-0.2156,-0.2162,-0.2162,-0.2148,-0.2148,-0.2148,-0.2148,0,0,0,0,0,0,0,-0.2166,-0.2167,-0.2181,-0.2173,-0.2173,-0.2171,-0.217,-0.2174,-0.2163,-0.2165,-0.2164,-0.2167,-0.2156,-0.2156,-0.2156,-0.2162,-0.2148,-0.2148,-0.2148,-0.2148,-0.2177,-0.2178,0,0,0,0,0,0,-0.2169,-0.2167,-0.2181,-0.2181,-0.2169,-0.2172,-0.2171,-0.2173,-0.2164,-0.2162,-0.2168,-0.2166,-0.2157,-0.2156,-0.2155,-0.2168,-0.2148,-0.2148,-0.2148,-0.2177,-0.2177,-0.2178,0,0,0,0,0,0,-0.2169,-0.217,-0.2181,-0.2175,-0.2177,-0.2173,-0.2175,-0.2174,-0.2172,-0.2166,-0.2164,-0.2167,-0.2156,-0.2155,-0.2158,-0.2167,-0.2148,-0.2149,-0.2176,-0.2177,-0.2178,-0.2195,0,0,0,0,0,0,-0.2168,-0.217,-0.2169,-0.2176,-0.2177,-0.219,-0.2176,-0.2174,-0.2176,-0.2173,-0.2165,-0.2163,-0.2155,-0.2158,-0.2159,-0.2167,-0.2149,-0.2175,-0.2176,-0.2177,-0.2194,-0.2197,-0.22,0,0,0,0,0,-0.2168,-0.2172,-0.2169,-0.2171,-0.2177,-0.2191,-0.2191,-0.2185,-0.2176,-0.2179,-0.2173,-0.2163,-0.2167,-0.2159,-0.2159,-0.2167,-0.2174,-0.2176,-0.2177,-0.2193,-0.2196,-0.22,0,0,0,0,0,0,-0.2165,-0.2171,-0.2167,-0.2174,-0.2182,-0.2188,-0.2189,-0.2188,-0.2186,-0.2181,-0.2171,-0.2169,-0.2177,-0.2173,-0.2164,-0.2181,-0.217,-0.2171,-0.2181,-0.2185,-0.2187,-0.2187,-0.2149,0,0,0,0,0,-0.2165,-0.2165,-0.2176,-0.2179,-0.2185,-0.2187,-0.219,-0.219,-0.2191,-0.2189,-0.2184,-0.2181,-0.2186,-0.2184,-0.2187,-0.2195,-0.2185,-0.2202,-0.2205,-0.2207,-0.2208,-0.2206,-0.2208,-0.2183,-0.2183,-0.2183,0,0,-0.2163,-0.2167,-0.2167,-0.2178,-0.2181,-0.2196,-0.2187,-0.2195,-0.2204,-0.2189,-0.2193,-0.2192,-0.2191,-0.22,-0.2203,-0.2195,-0.2207,-0.2209,-0.2211,-0.2211,-0.2207,-0.221,-0.2212,-0.2185,-0.2184,-0.2184,0,0,-0.2167,-0.2166,-0.2171,-0.2182,-0.2193,-0.2199,-0.2203,-0.2212,-0.2211,-0.222,-0.2213,-0.2215,-0.2219,-0.222,-0.2222,-0.2244,-0.2224,-0.2245,-0.2256,-0.2253,-0.2255,-0.2256,-0.2238,-0.2238,-0.2244,-0.2244,-0.2244,0,-0.2165,-0.2172,-0.2176,-0.2189,-0.2198,-0.2202,-0.2217,-0.2223,-0.223,-0.2233,-0.2223,-0.2233,-0.223,-0.2244,-0.2249,-0.2249,-0.2238,-0.2241,-0.2256,-0.2257,-0.2258,-0.2239,-0.2239,-0.2245,-0.2245,-0.2245,-0.2245,0,-0.2175,-0.2183,-0.219,-0.2205,-0.2217,-0.223,-0.2245,-0.2253,-0.2252,-0.2256,-0.2267,-0.2263,-0.2267,-0.227,-0.2264,-0.2275,-0.2261,-0.2261,-0.2245,-0.2262,-0.2241,-0.224,-0.2246,-0.2246,-0.2246,-0.2245,0,0,-0.2164,-0.2191,-0.2191,-0.2201,-0.2226,-0.2237,-0.2259,-0.2277,-0.2287,-0.229,-0.2301,-0.2307,-0.2299,-0.2301,-0.2296,-0.2293,-0.2287,-0.2278,-0.2278,-0.2255,-0.2268,-0.2267,-0.2266,-0.2287,-0.2287,-0.2287,-0.2246,0,-0.2168,-0.219,-0.2206,-0.2228,-0.2241,-0.226,-0.2281,-0.2298,-0.2306,-0.2318,-0.2318,-0.2325,-0.2314,-0.2312,-0.231,-0.2298,-0.2286,-0.2297,-0.2259,-0.2258,-0.2251,-0.2266,-0.2244,-0.2207,-0.2245,-0.2245,-0.2245,0,-0.2168,-0.2183,-0.2205,-0.2237,-0.2245,-0.2261,-0.2289,-0.2308,-0.2332,-0.2339,-0.2347,-0.2347,-0.2348,-0.2334,-0.2314,-0.232,-0.2294,-0.2279,-0.2277,-0.227,-0.2256,-0.2199,-0.2204,-0.2181,-0.2243,-0.2243,-0.2243,0,-0.2144,-0.218,-0.2193,-0.2204,-0.2245,-0.2257,-0.2277,-0.2307,-0.2324,-0.2347,-0.2358,-0.2362,-0.236,-0.2339,-0.2313,-0.231,-0.2286,-0.2278,-0.2249,-0.2248,-0.222,-0.2216,-0.2195,-0.2258,-0.2258,-0.2258,-0.2258,0,-0.2135,-0.2144,-0.2181,-0.2186,-0.2204,-0.224,-0.226,-0.2283,-0.232,-0.234,-0.2359,-0.2373,-0.2361,-0.235,-0.2319,-0.2285,-0.2289,-0.2252,-0.2243,-0.2225,-0.2223,-0.2195,-0.2196,-0.2256,-0.2257,-0.2257,-0.2257,0,-0.2095,-0.2124,-0.2138,-0.2178,-0.2189,-0.2196,-0.2242,-0.226,-0.2301,-0.2329,-0.2337,-0.2373,-0.2366,-0.235,-0.2317,-0.2292,-0.2225,-0.2242,-0.2217,-0.2206,-0.2164,-0.2167,-0.2091,-0.2034,-0.2202,-0.2202,-0.2201,0,-0.2074,-0.2076,-0.2112,-0.212,-0.2133,-0.2156,-0.2176,-0.2232,-0.2259,-0.2327,-0.2339,-0.2357,-0.2366,-0.233,-0.2305,-0.2258,-0.2206,-0.2191,-0.2189,-0.2162,-0.2158,-0.2113,-0.2067,-0.2147,-0.2147,-0.2146,-0.2146,0,-0.2023,-0.2035,-0.2045,-0.206,-0.2078,-0.2099,-0.2134,-0.2158,-0.2232,-0.2273,-0.2319,-0.2336,-0.2345,-0.2316,-0.2275,-0.2231,-0.215,-0.218,-0.216,-0.2125,-0.2067,-0.2007,-0.2164,-0.2142,-0.2142,-0.2143,-0.2143,-0.2143,-0.1972,-0.1963,-0.1974,-0.1981,-0.2004,-0.2019,-0.2013,-0.2085,-0.2124,-0.2192,-0.226,-0.2321,-0.2321,-0.2282,-0.2229,-0.216,-0.2127,-0.2093,-0.2099,-0.2054,-0.2005,-0.2152,-0.2123,-0.2123,-0.2123,-0.2124,-0.2124,0,-0.189,-0.1887,-0.1895,-0.1896,-0.1885,-0.1926,-0.1962,-0.1962,-0.1994,-0.2134,-0.2187,-0.2323,-0.2273,-0.2265,-0.2216,-0.2114,-0.202,-0.2028,-0.1961,-0.1916,-0.2054,-0.206,-0.2009,-0.2009,-0.2009,-0.2009,-0.2009,-0.2009,-0.1848,-0.1814,-0.1817,-0.1764,-0.1766,-0.1721,-0.1721,-0.1756,-0.184,-0.1991,-0.2161,-0.2324,-0.235,-0.2353,-0.2209,-0.2091,-0.1969,-0.1904,-0.186,-0.1985,-0.1991,-0.1997,-0.2002,-0.1939,-0.1939,-0.167,-0.1668,-0.1667]},{"header":{"parameterUnit":"m.s-1","parameterCategory":2,"la1":30.2991,"la2":30.254,"lo1":-89.0895,"lo2":-89.0444,"dy":0.0017,"dx":0.0017,"nx":28,"ny":28,"refTime":"2024-11-29T09:00:00:Z","depth":"0","parameterNumber":3,"parameterNumberName":"V-component_of_CURRENTS"},"data":[0,0,0,0,0,0,0,0,0,0,0,0,0,0,0,0,0,0,0,0,0,0,0,0,0,0,0,0,0,0,0,0,0,0,0,0,0,0,0,0,0,0,0,0,0,0,0,0,0,0,0,0,0,0,0,0,0,0,-0.0577,-0.0577,0,-0.0515,-0.0514,-0.0513,-0.0469,-0.0469,-0.0468,-0.0468,-0.0384,-0.0382,-0.038,0,0,0,0,0,0,0,0,0,0,0,0,0,-0.0617,-0.0617,-0.0577,-0.0577,-0.0576,-0.0515,-0.0514,-0.0513,-0.0469,-0.0469,-0.0468,-0.0468,-0.0384,-0.0382,-0.0379,0,0,0,0,0,0,0,0,0,0,0,0,0,-0.0581,-0.0617,-0.0578,-0.0547,-0.0544,-0.0515,-0.0514,-0.0513,-0.0469,-0.0468,-0.0468,-0.0468,-0.0385,-0.0382,-0.0379,-0.0369,0,0,-0.037,-0.0369,0,0,0,0,0,0,0,0,-0.0583,-0.0579,-0.0552,-0.0549,-0.0546,-0.05,-0.0497,-0.0464,-0.0469,-0.0496,-0.0468,-0.0468,-0.0421,-0.0415,-0.0404,-0.0365,-0.0361,-0.037,-0.0368,-0.0367,-0.0366,0,0,0,0,0,0,0,-0.0586,-0.0582,-0.0552,-0.0552,-0.0548,-0.0523,-0.0517,-0.049,-0.0461,-0.0494,-0.0491,-0.0486,-0.0419,-0.0407,-0.0401,-0.036,-0.037,-0.0367,-0.0365,-0.0364,-0.0309,-0.0309,0,0,0,0,0,0,-0.0598,-0.0584,-0.0554,-0.055,-0.0565,-0.0523,-0.0517,-0.0514,-0.0461,-0.0453,-0.0486,-0.0484,-0.0412,-0.0405,-0.0398,-0.0381,-0.0367,-0.0364,-0.0362,-0.0309,-0.0309,-0.031,0,0,0,0,0,0,-0.0599,-0.0596,-0.0556,-0.0566,-0.0559,-0.0523,-0.052,-0.0513,-0.05,-0.0456,-0.0447,-0.048,-0.0411,-0.0402,-0.0376,-0.0377,-0.0363,-0.036,-0.0308,-0.0309,-0.0309,-0.0347,0,0,0,0,0,0,-0.0601,-0.0597,-0.06,-0.0567,-0.0559,-0.0543,-0.0521,-0.0512,-0.0498,-0.0494,-0.0448,-0.044,-0.041,-0.0381,-0.0373,-0.0373,-0.0357,-0.0308,-0.0309,-0.0309,-0.0346,-0.0349,-0.0352,0,0,0,0,0,-0.0602,-0.0608,-0.06,-0.0596,-0.0565,-0.0544,-0.0537,-0.0509,-0.0498,-0.0495,-0.0464,-0.0441,-0.038,-0.0379,-0.037,-0.0368,-0.0308,-0.0308,-0.0309,-0.0344,-0.0349,-0.0352,0,0,0,0,0,0,-0.0624,-0.0604,-0.0594,-0.0593,-0.0572,-0.0537,-0.0531,-0.0514,-0.0487,-0.0484,-0.0442,-0.0432,-0.0411,-0.0387,-0.0387,-0.0356,-0.0341,-0.034,-0.0371,-0.0374,-0.0378,-0.0384,-0.0355,0,0,0,0,0,-0.0632,-0.0633,-0.0606,-0.0605,-0.0598,-0.0567,-0.0555,-0.0537,-0.051,-0.0497,-0.0465,-0.0434,-0.0408,-0.0389,-0.0364,-0.0344,-0.0316,-0.0339,-0.0342,-0.0345,-0.0344,-0.0305,-0.0304,-0.0312,-0.0312,-0.0312,0,0,-0.0639,-0.0629,-0.0628,-0.061,-0.0592,-0.0586,-0.0558,-0.0546,-0.0536,-0.0493,-0.0472,-0.0445,-0.0406,-0.0385,-0.0374,-0.0363,-0.0329,-0.0346,-0.0348,-0.0346,-0.0306,-0.0305,-0.0304,-0.0313,-0.0312,-0.0312,0,0,-0.0657,-0.0646,-0.0654,-0.0642,-0.0622,-0.0602,-0.0602,-0.057,-0.0553,-0.0532,-0.05,-0.0473,-0.0433,-0.0402,-0.0382,-0.0388,-0.035,-0.0384,-0.0398,-0.036,-0.0359,-0.0358,-0.0324,-0.0319,-0.0382,-0.0382,-0.0382,0,-0.0667,-0.0673,-0.0652,-0.0655,-0.0648,-0.0614,-0.0617,-0.0594,-0.0557,-0.0542,-0.0532,-0.0469,-0.0439,-0.0405,-0.0408,-0.0394,-0.0369,-0.0386,-0.0364,-0.0362,-0.036,-0.0325,-0.032,-0.0384,-0.0384,-0.0383,-0.0383,0,-0.069,-0.0694,-0.0697,-0.0691,-0.0679,-0.0677,-0.0646,-0.063,-0.0607,-0.0579,-0.0544,-0.05,-0.0462,-0.045,-0.043,-0.0401,-0.0388,-0.0376,-0.0354,-0.0361,-0.0325,-0.0318,-0.0386,-0.0386,-0.0385,-0.0385,0,0,-0.0714,-0.0715,-0.0716,-0.0721,-0.0699,-0.0692,-0.0677,-0.065,-0.0637,-0.0598,-0.0573,-0.0528,-0.0501,-0.0478,-0.0445,-0.0411,-0.0378,-0.0392,-0.0389,-0.0358,-0.0296,-0.028,-0.0271,-0.0361,-0.036,-0.036,-0.0278,0,-0.0738,-0.0763,-0.0748,-0.076,-0.0769,-0.0734,-0.0721,-0.069,-0.0656,-0.0623,-0.0569,-0.0537,-0.0512,-0.0494,-0.0457,-0.0396,-0.0362,-0.0401,-0.0294,-0.0291,-0.0275,-0.0263,-0.0292,-0.0221,-0.0271,-0.027,-0.0269,0,-0.0766,-0.0779,-0.0804,-0.0801,-0.0799,-0.0797,-0.077,-0.0753,-0.0695,-0.0667,-0.0619,-0.0574,-0.0515,-0.0498,-0.0393,-0.042,-0.0366,-0.0318,-0.0314,-0.028,-0.0262,-0.0221,-0.0207,-0.0154,-0.0259,-0.0259,-0.026,0,-0.0804,-0.0815,-0.0839,-0.0839,-0.0829,-0.0828,-0.0815,-0.0769,-0.0753,-0.0692,-0.0671,-0.0592,-0.0551,-0.0472,-0.0374,-0.0383,-0.0257,-0.0254,-0.0187,-0.0185,-0.0178,-0.0177,-0.0099,-0.0184,-0.0184,-0.0184,-0.0185,0,-0.084,-0.0856,-0.0862,-0.0876,-0.0897,-0.0868,-0.0871,-0.0843,-0.0798,-0.0779,-0.07,-0.0666,-0.0544,-0.0457,-0.0375,-0.0255,-0.0253,-0.0184,-0.016,-0.0193,-0.0195,-0.0122,-0.0081,-0.0181,-0.0182,-0.0183,-0.0183,0,-0.0881,-0.0884,-0.0914,-0.0918,-0.0921,-0.0935,-0.0922,-0.092,-0.0866,-0.0838,-0.0821,-0.0714,-0.0596,-0.0467,-0.0325,-0.0254,-0.0104,-0.0104,-0.0153,-0.0136,-0.0033,0.0007,0.0159,0.0162,-0.0018,-0.0017,-0.0017,0,-0.0904,-0.0926,-0.0955,-0.0981,-0.0987,-0.1,-0.1011,-0.0967,-0.0958,-0.087,-0.0862,-0.0737,-0.0652,-0.0428,-0.0274,-0.0111,-0.0058,-0.0045,-0.0066,-0.0024,0.0039,0.0083,0.0076,-0.0072,-0.0072,-0.0071,-0.0071,0,-0.0948,-0.096,-0.0987,-0.1047,-0.1073,-0.1094,-0.1099,-0.1101,-0.1039,-0.1001,-0.0929,-0.0851,-0.0623,-0.0448,-0.0224,-0.0131,-0.0011,-0.0035,0.0024,0.0021,0.006,0.0071,-0.0131,-0.0069,-0.0069,-0.007,-0.007,-0.007,-0.0975,-0.1012,-0.1057,-0.1109,-0.1145,-0.118,-0.1201,-0.119,-0.1174,-0.1107,-0.1005,-0.0879,-0.0604,-0.0292,-0.0184,0.0019,0.0032,0.0057,0.0108,0.0152,0.0141,-0.0057,0.0021,0.0022,0.0022,0.0022,0.0022,0,-0.101,-0.1055,-0.1115,-0.1178,-0.1234,-0.1233,-0.1255,-0.1267,-0.1261,-0.1167,-0.1081,-0.0781,-0.053,-0.0269,0.0052,0.0155,0.0159,0.0197,0.0237,0.0223,0.0057,0.0036,0.0102,0.0102,0.0102,0.0102,0.0102,0.0102,-0.103,-0.1102,-0.1141,-0.1243,-0.1286,-0.1348,-0.1364,-0.137,-0.132,-0.119,-0.1019,-0.0875,-0.0462,0.0093,0.0342,0.0341,0.0389,0.0397,0.0438,0.0305,0.0294,0.0285,0.0273,0.0388,0.0388,0.0548,0.055,0.0551]}],[{"header":{"parameterUnit":"m.s-1","parameterCategory":2,"la1":30.2991,"la2":30.254,"lo1":-89.0895,"lo2":-89.0444,"dy":0.0017,"dx":0.0017,"nx":28,"ny":28,"refTime":"2024-11-29T09:00:00:Z","depth":"2","parameterNumber":2,"parameterNumberName":"U-component_of_CURRENTS"},"data":[0,0,0,0,0,0,0,0,0,0,0,0,0,0,0,0,0,0,0,0,0,0,0,0,0,0,0,0,0,0,0,0,0,0,0,0,0,0,0,0,0,0,0,0,0,0,0,0,0,0,0,0,0,0,0,0,0,0,-0.2133,-0.2133,0,-0.2138,-0.2137,-0.2137,-0.2117,-0.2117,-0.2117,-0.2116,-0.2103,-0.2103,-0.2103,0,0,0,0,0,0,0,0,0,0,0,0,0,-0.2115,-0.2115,-0.2133,-0.2133,-0.2134,-0.2138,-0.2137,-0.2137,-0.2117,-0.2117,-0.2116,-0.2116,-0.2103,-0.2103,-0.2103,0,0,0,0,0,0,0,0,0,0,0,0,0,-0.212,-0.2115,-0.2133,-0.2125,-0.2125,-0.2138,-0.2137,-0.2137,-0.2118,-0.2117,-0.2116,-0.2116,-0.2103,-0.2103,-0.2103,-0.2117,0,0,-0.2103,-0.2103,0,0,0,0,0,0,0,0,-0.212,-0.212,-0.2126,-0.2126,-0.2125,-0.2128,-0.2126,-0.213,-0.2118,-0.2119,-0.2116,-0.2115,-0.2111,-0.211,-0.2111,-0.2116,-0.2116,-0.2103,-0.2103,-0.2104,-0.2104,0,0,0,0,0,0,0,-0.2119,-0.212,-0.2133,-0.2127,-0.2126,-0.2124,-0.2124,-0.2127,-0.2117,-0.2119,-0.2118,-0.2121,-0.211,-0.2111,-0.211,-0.2116,-0.2103,-0.2104,-0.2104,-0.2104,-0.2133,-0.2133,0,0,0,0,0,0,-0.2122,-0.212,-0.2133,-0.2134,-0.2122,-0.2125,-0.2125,-0.2126,-0.2117,-0.2116,-0.2121,-0.212,-0.2111,-0.211,-0.211,-0.2123,-0.2104,-0.2104,-0.2104,-0.2132,-0.2133,-0.2134,0,0,0,0,0,0,-0.2122,-0.2123,-0.2133,-0.2128,-0.2129,-0.2126,-0.2128,-0.2127,-0.2126,-0.212,-0.2118,-0.2121,-0.211,-0.211,-0.2114,-0.2123,-0.2104,-0.2104,-0.2131,-0.2132,-0.2133,-0.2152,0,0,0,0,0,0,-0.2121,-0.2123,-0.2122,-0.2128,-0.213,-0.2143,-0.2129,-0.2127,-0.2129,-0.2127,-0.2119,-0.2118,-0.211,-0.2114,-0.2114,-0.2123,-0.2104,-0.213,-0.2132,-0.2133,-0.2151,-0.2154,-0.2156,0,0,0,0,0,-0.212,-0.2126,-0.2122,-0.2124,-0.213,-0.2143,-0.2144,-0.2138,-0.213,-0.2134,-0.2128,-0.2118,-0.2122,-0.2114,-0.2114,-0.2123,-0.213,-0.2131,-0.2133,-0.2149,-0.2153,-0.2156,0,0,0,0,0,0,-0.2119,-0.2124,-0.2121,-0.2127,-0.2135,-0.214,-0.2143,-0.2141,-0.214,-0.2135,-0.2126,-0.2124,-0.2133,-0.2128,-0.212,-0.2137,-0.2125,-0.2127,-0.2138,-0.2141,-0.2144,-0.2144,-0.2104,0,0,0,0,0,-0.2119,-0.2119,-0.213,-0.2133,-0.2139,-0.2141,-0.2144,-0.2144,-0.2145,-0.2144,-0.2139,-0.2137,-0.2141,-0.214,-0.2143,-0.2151,-0.2141,-0.2158,-0.2161,-0.2164,-0.2164,-0.2162,-0.2164,-0.2139,-0.2139,-0.2139,0,0,-0.2118,-0.2121,-0.2121,-0.2132,-0.2135,-0.2149,-0.2141,-0.215,-0.2158,-0.2144,-0.2149,-0.2147,-0.2147,-0.2156,-0.2159,-0.2151,-0.2164,-0.2166,-0.2168,-0.2167,-0.2164,-0.2166,-0.2168,-0.214,-0.214,-0.214,0,0,-0.2122,-0.2122,-0.2126,-0.2137,-0.2148,-0.2153,-0.2158,-0.2167,-0.2166,-0.2176,-0.2169,-0.2172,-0.2176,-0.2177,-0.2178,-0.2201,-0.2182,-0.2202,-0.2213,-0.2211,-0.2213,-0.2215,-0.2197,-0.2197,-0.2201,-0.2201,-0.2201,0,-0.2121,-0.2128,-0.2131,-0.2144,-0.2153,-0.2157,-0.2172,-0.2178,-0.2186,-0.2189,-0.218,-0.219,-0.2187,-0.2201,-0.2206,-0.2207,-0.2196,-0.2199,-0.2214,-0.2216,-0.2217,-0.2198,-0.2198,-0.2203,-0.2202,-0.2202,-0.2202,0,-0.2131,-0.2139,-0.2146,-0.216,-0.2173,-0.2185,-0.22,-0.2209,-0.2209,-0.2213,-0.2224,-0.2221,-0.2225,-0.2227,-0.2222,-0.2233,-0.2219,-0.2219,-0.2203,-0.222,-0.22,-0.2199,-0.2204,-0.2204,-0.2203,-0.2203,0,0,-0.2121,-0.2147,-0.2148,-0.2157,-0.2182,-0.2192,-0.2214,-0.2233,-0.2243,-0.2247,-0.2257,-0.2264,-0.2257,-0.2259,-0.2254,-0.2251,-0.2247,-0.2237,-0.2237,-0.2215,-0.2229,-0.2227,-0.2225,-0.2247,-0.2247,-0.2247,-0.2208,0,-0.2125,-0.2147,-0.2162,-0.2184,-0.2197,-0.2216,-0.2236,-0.2253,-0.2262,-0.2274,-0.2275,-0.2282,-0.2272,-0.2271,-0.2269,-0.2257,-0.2246,-0.2256,-0.222,-0.2218,-0.2211,-0.2226,-0.2026,-0.1976,-0.2207,-0.2207,-0.2207,0,-0.2126,-0.214,-0.2161,-0.2192,-0.2201,-0.2216,-0.2244,-0.2263,-0.2287,-0.2295,-0.2304,-0.2304,-0.2306,-0.2292,-0.2274,-0.228,-0.2254,-0.224,-0.2238,-0.223,-0.2216,-0.1998,-0.1966,-0.2205,-0.2205,-0.2205,-0.2205,0,-0.2102,-0.2137,-0.215,-0.2161,-0.2201,-0.2213,-0.2232,-0.2263,-0.2279,-0.2303,-0.2314,-0.2319,-0.2318,-0.2298,-0.2273,-0.227,-0.2248,-0.2239,-0.2211,-0.221,-0.203,-0.2014,-0.222,-0.222,-0.2221,-0.2221,-0.2221,0,-0.2093,-0.2102,-0.2138,-0.2143,-0.216,-0.2196,-0.2216,-0.224,-0.2276,-0.2296,-0.2316,-0.2329,-0.232,-0.2309,-0.2279,-0.2246,-0.2251,-0.2214,-0.2205,-0.2032,-0.2017,-0.2211,-0.221,-0.2219,-0.2219,-0.222,-0.222,0,-0.2054,-0.2082,-0.2096,-0.2135,-0.2146,-0.2154,-0.2198,-0.2216,-0.2258,-0.2285,-0.2294,-0.233,-0.2323,-0.2309,-0.2277,-0.2252,-0.2221,-0.2204,-0.2002,-0.1971,-0.2177,-0.2178,-0.2165,-0.2164,-0.2164,-0.2164,-0.2164,0,-0.2033,-0.2035,-0.2071,-0.2078,-0.2092,-0.2115,-0.2133,-0.2189,-0.2215,-0.2283,-0.2293,-0.2313,-0.2315,-0.2281,-0.2213,-0.2156,-0.2211,-0.1968,-0.1941,-0.2182,-0.2174,-0.2175,-0.2176,-0.1692,-0.1688,-0.1685,-0.1682,0,-0.1983,-0.1995,-0.2004,-0.2019,-0.2036,-0.2056,-0.2091,-0.2113,-0.2186,-0.2219,-0.2264,-0.2274,-0.2245,-0.2105,-0.2049,-0.1991,-0.1967,-0.1905,-0.2183,-0.1768,-0.1742,-0.1733,-0.1748,-0.1653,-0.1656,-0.1658,-0.1659,-0.1661,-0.1933,-0.1923,-0.1935,-0.1941,-0.1963,-0.1976,-0.1969,-0.2011,-0.2038,-0.2042,-0.214,-0.2085,-0.2038,-0.1864,-0.1767,-0.1688,-0.1833,-0.1734,-0.1741,-0.1752,-0.1735,-0.1714,-0.1614,-0.1616,-0.1619,-0.1621,-0.1622,0,-0.1844,-0.1848,-0.1856,-0.1855,-0.1832,-0.1884,-0.1918,-0.1866,-0.1851,-0.1882,-0.1877,-0.1674,-0.1581,-0.1554,-0.1388,-0.1372,-0.1313,-0.1315,-0.1217,-0.1248,-0.1275,-0.123,-0.0977,-0.0975,-0.0973,-0.0971,0,0,-0.18,-0.1761,-0.1763,-0.1701,-0.1711,-0.164,-0.1637,-0.1579,-0.1559,-0.1477,-0.1444,-0.1509,-0.154,-0.126,-0.1182,-0.1064,-0.1146,-0.1009,-0.1526,-0.1443,-0.1467,-0.1515,-0.1483,0,0,0,0,0]},{"header":{"parameterUnit":"m.s-1","parameterCategory":2,"la1":30.2991,"la2":30.254,"lo1":-89.0895,"lo2":-89.0444,"dy":0.0017,"dx":0.0017,"nx":28,"ny":28,"refTime":"2024-11-29T09:00:00:Z","depth":"2","parameterNumber":3,"parameterNumberName":"V-component_of_CURRENTS"},"data":[0,0,0,0,0,0,0,0,0,0,0,0,0,0,0,0,0,0,0,0,0,0,0,0,0,0,0,0,0,0,0,0,0,0,0,0,0,0,0,0,0,0,0,0,0,0,0,0,0,0,0,0,0,0,0,0,0,0,-0.0509,-0.0508,0,-0.0446,-0.0445,-0.0444,-0.0401,-0.0401,-0.04,-0.04,-0.0316,-0.0314,-0.0312,0,0,0,0,0,0,0,0,0,0,0,0,0,-0.0549,-0.0549,-0.0509,-0.0508,-0.0507,-0.0446,-0.0445,-0.0444,-0.0401,-0.0401,-0.04,-0.04,-0.0317,-0.0315,-0.0312,0,0,0,0,0,0,0,0,0,0,0,0,0,-0.0513,-0.0549,-0.0509,-0.0479,-0.0476,-0.0446,-0.0445,-0.0444,-0.0401,-0.0401,-0.04,-0.04,-0.0318,-0.0315,-0.0312,-0.03,0,0,-0.0302,-0.0301,0,0,0,0,0,0,0,0,-0.0515,-0.0511,-0.0484,-0.0481,-0.0478,-0.0432,-0.0428,-0.0395,-0.0401,-0.0428,-0.04,-0.04,-0.0354,-0.0348,-0.0336,-0.0296,-0.0292,-0.0302,-0.03,-0.0299,-0.0298,0,0,0,0,0,0,0,-0.0518,-0.0514,-0.0483,-0.0484,-0.048,-0.0455,-0.0449,-0.0422,-0.0393,-0.0426,-0.0423,-0.0418,-0.0352,-0.0339,-0.0333,-0.0291,-0.0302,-0.03,-0.0298,-0.0297,-0.024,-0.0241,0,0,0,0,0,0,-0.053,-0.0516,-0.0485,-0.0481,-0.0497,-0.0454,-0.0448,-0.0446,-0.0393,-0.0385,-0.0418,-0.0416,-0.0344,-0.0337,-0.033,-0.0314,-0.0299,-0.0296,-0.0294,-0.024,-0.024,-0.0241,0,0,0,0,0,0,-0.0531,-0.0528,-0.0487,-0.0498,-0.0491,-0.0455,-0.0452,-0.0445,-0.0433,-0.0388,-0.0379,-0.0413,-0.0343,-0.0334,-0.0309,-0.031,-0.0295,-0.0292,-0.024,-0.024,-0.0241,-0.0281,0,0,0,0,0,0,-0.0533,-0.0529,-0.0532,-0.0499,-0.0491,-0.0474,-0.0452,-0.0444,-0.043,-0.0427,-0.0381,-0.0372,-0.0342,-0.0313,-0.0306,-0.0306,-0.029,-0.0239,-0.024,-0.024,-0.0279,-0.0282,-0.0286,0,0,0,0,0,-0.0534,-0.054,-0.0532,-0.0529,-0.0496,-0.0475,-0.0468,-0.044,-0.0431,-0.0428,-0.0397,-0.0374,-0.0312,-0.0311,-0.0302,-0.0301,-0.0239,-0.024,-0.024,-0.0277,-0.0282,-0.0285,0,0,0,0,0,0,-0.0557,-0.0536,-0.0526,-0.0525,-0.0504,-0.0468,-0.0463,-0.0446,-0.0419,-0.0417,-0.0375,-0.0364,-0.0344,-0.0319,-0.032,-0.0288,-0.0273,-0.0272,-0.0304,-0.0308,-0.0311,-0.0318,-0.0287,0,0,0,0,0,-0.0565,-0.0565,-0.0539,-0.0538,-0.053,-0.0499,-0.0487,-0.047,-0.0442,-0.043,-0.0398,-0.0366,-0.034,-0.0322,-0.0296,-0.0276,-0.0248,-0.0271,-0.0275,-0.0277,-0.0277,-0.0239,-0.0239,-0.0243,-0.0243,-0.0243,0,0,-0.0572,-0.0562,-0.0561,-0.0543,-0.0525,-0.0518,-0.0491,-0.0478,-0.0469,-0.0425,-0.0405,-0.0378,-0.0339,-0.0317,-0.0306,-0.0296,-0.0263,-0.0278,-0.0281,-0.0279,-0.024,-0.024,-0.0239,-0.0244,-0.0244,-0.0244,0,0,-0.0591,-0.058,-0.0588,-0.0575,-0.0556,-0.0535,-0.0535,-0.0503,-0.0486,-0.0465,-0.0434,-0.0407,-0.0366,-0.0336,-0.0316,-0.0322,-0.0284,-0.0318,-0.0333,-0.0297,-0.0296,-0.0295,-0.0262,-0.0258,-0.0315,-0.0316,-0.0316,0,-0.0601,-0.0607,-0.0585,-0.0589,-0.0581,-0.0547,-0.0551,-0.0528,-0.0491,-0.0476,-0.0466,-0.0404,-0.0373,-0.0339,-0.0343,-0.0328,-0.0304,-0.0321,-0.03,-0.0299,-0.0297,-0.0264,-0.0259,-0.0318,-0.0317,-0.0317,-0.0317,0,-0.0624,-0.0628,-0.0631,-0.0625,-0.0613,-0.0611,-0.058,-0.0565,-0.0542,-0.0515,-0.0481,-0.0436,-0.0398,-0.0386,-0.0365,-0.0339,-0.0325,-0.0312,-0.029,-0.0299,-0.0264,-0.0258,-0.032,-0.032,-0.0319,-0.0319,0,0,-0.0649,-0.065,-0.065,-0.0656,-0.0634,-0.0628,-0.0613,-0.0586,-0.0574,-0.0535,-0.0512,-0.0467,-0.044,-0.0417,-0.0384,-0.0351,-0.032,-0.0331,-0.0328,-0.0299,-0.0242,-0.0225,-0.0217,-0.0303,-0.0303,-0.0302,-0.0224,0,-0.0674,-0.0699,-0.0683,-0.0696,-0.0705,-0.067,-0.0658,-0.0628,-0.0594,-0.0563,-0.0509,-0.0478,-0.0451,-0.0435,-0.0398,-0.0337,-0.0305,-0.0342,-0.0237,-0.0234,-0.0219,-0.0209,-0.0194,-0.0122,-0.0217,-0.0216,-0.0215,0,-0.0702,-0.0716,-0.074,-0.0738,-0.0737,-0.0735,-0.0709,-0.0692,-0.0636,-0.0608,-0.0562,-0.0517,-0.046,-0.0442,-0.0339,-0.0365,-0.0311,-0.0264,-0.026,-0.0225,-0.0206,-0.0128,-0.0107,-0.0205,-0.0205,-0.0206,-0.0207,0,-0.0741,-0.0752,-0.0776,-0.0777,-0.0767,-0.0767,-0.0754,-0.071,-0.0695,-0.0636,-0.0616,-0.0538,-0.0498,-0.042,-0.0323,-0.0331,-0.0208,-0.0204,-0.0137,-0.0135,-0.0091,-0.0087,-0.0136,-0.0137,-0.0137,-0.0137,-0.0137,0,-0.0778,-0.0795,-0.08,-0.0815,-0.0837,-0.0808,-0.0812,-0.0785,-0.0742,-0.0724,-0.0646,-0.0614,-0.0492,-0.0407,-0.0325,-0.0206,-0.0206,-0.0135,-0.0111,-0.0106,-0.0104,-0.0152,-0.0155,-0.0134,-0.0135,-0.0135,-0.0136,0,-0.082,-0.0823,-0.0853,-0.0857,-0.0861,-0.0876,-0.0864,-0.0863,-0.081,-0.0784,-0.0767,-0.0662,-0.0546,-0.0419,-0.0279,-0.0208,-0.0098,-0.006,-0.0063,-0.0041,-0.0051,-0.0057,0.0022,0.0024,0.0025,0.0026,0.0026,0,-0.0843,-0.0865,-0.0895,-0.0921,-0.0928,-0.0942,-0.0953,-0.091,-0.0902,-0.0816,-0.0809,-0.0686,-0.06,-0.0379,-0.0215,-0.005,-0.0063,0.0044,0.003,-0.0049,-0.0034,-0.0041,-0.0048,0.0075,0.0076,0.0077,0.0078,0,-0.0887,-0.09,-0.0927,-0.0987,-0.1014,-0.1035,-0.1041,-0.1044,-0.0983,-0.0943,-0.0873,-0.0794,-0.056,-0.0357,-0.013,-0.0036,0.002,0.0066,0.0005,0.0023,0.0005,0.0018,0.0009,0.0086,0.0085,0.0084,0.0084,0.0084,-0.0915,-0.0952,-0.0997,-0.105,-0.1086,-0.1121,-0.1142,-0.1115,-0.1094,-0.0999,-0.0923,-0.0763,-0.0555,-0.0219,-0.005,0.0114,0.0082,0.0129,0.0125,0.012,0.0103,0.0087,0.018,0.018,0.0179,0.0179,0.0179,0,-0.0942,-0.0995,-0.1056,-0.1119,-0.1163,-0.1175,-0.1196,-0.1172,-0.1139,-0.1015,-0.0909,-0.0653,-0.0407,-0.0191,0.0075,0.021,0.0209,0.0238,0.0214,0.0205,0.0197,0.0183,0.0282,0.0283,0.0283,0.0284,0,0,-0.096,-0.1027,-0.1065,-0.1161,-0.1213,-0.125,-0.1266,-0.1208,-0.1115,-0.0975,-0.0836,-0.065,-0.0401,-0.0188,0.0007,0.0151,0.0137,0.0169,0.0073,0.0013,0.0004,0.0124,0.009,0,0,0,0,0]}],[{"header":{"parameterUnit":"m.s-1","parameterCategory":2,"la1":30.2991,"la2":30.254,"lo1":-89.0895,"lo2":-89.0444,"dy":0.0017,"dx":0.0017,"nx":28,"ny":28,"refTime":"2024-11-29T09:00:00:Z","depth":"4","parameterNumber":2,"parameterNumberName":"U-component_of_CURRENTS"},"data":[0,0,0,0,0,0,0,0,0,0,0,0,0,0,0,0,0,0,0,0,0,0,0,0,0,0,0,0,0,0,0,0,0,0,0,0,0,0,0,0,0,0,0,0,0,0,0,0,0,0,0,0,0,0,0,0,0,0,-0.1396,-0.1397,0,-0.1429,-0.1429,-0.1429,-0.1455,-0.1455,-0.1455,-0.1456,-0.1501,-0.1502,-0.1503,0,0,0,0,0,0,0,0,0,0,0,0,0,-0.1357,-0.1358,-0.1396,-0.1397,-0.1397,-0.1429,-0.1429,-0.143,-0.1455,-0.1455,-0.1456,-0.1456,-0.1501,-0.1502,-0.1503,0,0,0,0,0,0,0,0,0,0,0,0,0,-0.1379,-0.1358,-0.1396,-0.1414,-0.1416,-0.1429,-0.1429,-0.143,-0.1455,-0.1455,-0.1456,-0.1456,-0.1501,-0.1502,-0.1503,-0.1502,0,0,-0.1507,-0.1508,0,0,0,0,0,0,0,0,-0.1378,-0.1381,-0.1411,-0.1413,-0.1416,-0.1439,-0.1432,-0.1455,-0.1455,-0.1439,-0.1456,-0.1456,-0.1482,-0.1485,-0.1488,-0.1504,-0.1506,-0.1507,-0.1508,-0.1509,-0.1509,0,0,0,0,0,0,0,-0.1377,-0.1379,-0.1408,-0.1412,-0.1414,-0.1421,-0.1425,-0.1436,-0.1457,-0.144,-0.1443,-0.1448,-0.1483,-0.1487,-0.149,-0.1506,-0.1507,-0.1509,-0.1509,-0.151,-0.1586,-0.1587,0,0,0,0,0,0,-0.1374,-0.1378,-0.1407,-0.1409,-0.1399,-0.1422,-0.1426,-0.143,-0.1456,-0.1461,-0.1447,-0.1449,-0.1484,-0.1488,-0.1491,-0.1549,-0.1509,-0.151,-0.1511,-0.1584,-0.1586,-0.1587,0,0,0,0,0,0,-0.1373,-0.1376,-0.1406,-0.1395,-0.14,-0.1422,-0.1427,-0.1431,-0.1458,-0.1462,-0.1466,-0.1473,-0.1485,-0.1489,-0.1523,-0.1549,-0.1511,-0.1512,-0.1583,-0.1585,-0.1587,-0.1628,0,0,0,0,0,0,-0.1372,-0.1376,-0.139,-0.1395,-0.14,-0.143,-0.1427,-0.1431,-0.1459,-0.1462,-0.1485,-0.1488,-0.1486,-0.1521,-0.1524,-0.155,-0.1513,-0.1582,-0.1584,-0.1586,-0.1625,-0.1631,-0.1636,0,0,0,0,0,-0.137,-0.1384,-0.139,-0.1395,-0.1415,-0.1431,-0.1435,-0.1451,-0.146,-0.1476,-0.1494,-0.1489,-0.1538,-0.1523,-0.1527,-0.1554,-0.158,-0.1583,-0.1586,-0.1622,-0.163,-0.1636,0,0,0,0,0,0,-0.1378,-0.1388,-0.1395,-0.1413,-0.1429,-0.1436,-0.1455,-0.1465,-0.1491,-0.1501,-0.1503,-0.1508,-0.1547,-0.1546,-0.153,-0.1582,-0.1559,-0.1562,-0.1586,-0.1592,-0.1598,-0.1591,-0.1514,0,0,0,0,0,-0.1384,-0.1398,-0.1409,-0.1427,-0.1437,-0.1451,-0.1464,-0.1476,-0.1492,-0.1505,-0.1522,-0.154,-0.1556,-0.1572,-0.1584,-0.1614,-0.1599,-0.1634,-0.164,-0.1644,-0.1642,-0.1643,-0.1648,-0.1596,-0.1596,-0.1596,0,0,-0.1394,-0.1401,-0.1411,-0.143,-0.1444,-0.1463,-0.1461,-0.1488,-0.1511,-0.1506,-0.1551,-0.1561,-0.1569,-0.1601,-0.1619,-0.1607,-0.1652,-0.1648,-0.1652,-0.1647,-0.1647,-0.1652,-0.1656,-0.1598,-0.1598,-0.1597,0,0,-0.1409,-0.1426,-0.144,-0.1456,-0.148,-0.1489,-0.1502,-0.1525,-0.1545,-0.1581,-0.1584,-0.1611,-0.1641,-0.1649,-0.1655,-0.1699,-0.168,-0.171,-0.1734,-0.1736,-0.174,-0.1743,-0.1728,-0.173,-0.1714,-0.1714,-0.1714,0,-0.1423,-0.1437,-0.1449,-0.1467,-0.1484,-0.1504,-0.1526,-0.1548,-0.1581,-0.1597,-0.1604,-0.165,-0.166,-0.169,-0.1707,-0.1711,-0.1702,-0.1708,-0.1742,-0.1745,-0.1748,-0.1731,-0.1732,-0.1716,-0.1716,-0.1716,-0.1716,0,-0.1438,-0.1462,-0.1474,-0.1501,-0.1524,-0.1548,-0.1574,-0.1605,-0.1632,-0.1647,-0.1692,-0.1705,-0.1728,-0.1742,-0.1739,-0.1768,-0.1752,-0.1747,-0.1722,-0.1755,-0.1736,-0.1736,-0.172,-0.1719,-0.1718,-0.1718,0,0,-0.1432,-0.1477,-0.1483,-0.1502,-0.1544,-0.156,-0.1606,-0.1641,-0.1668,-0.1707,-0.1736,-0.1773,-0.1779,-0.1787,-0.1791,-0.1798,-0.181,-0.1785,-0.1784,-0.1763,-0.1803,-0.1709,-0.17,-0.1812,-0.1813,-0.1813,-0.1781,0,-0.1441,-0.1475,-0.15,-0.1543,-0.1562,-0.1599,-0.1635,-0.1673,-0.1706,-0.174,-0.1764,-0.1794,-0.1797,-0.181,-0.182,-0.1813,-0.1814,-0.1819,-0.178,-0.1778,-0.1685,-0.1698,-0.1815,-0.1781,-0.1781,-0.1781,-0.1781,0,-0.1439,-0.1463,-0.1504,-0.1556,-0.1569,-0.1603,-0.1658,-0.1693,-0.1743,-0.1769,-0.1803,-0.1817,-0.1843,-0.1837,-0.184,-0.1843,-0.1827,-0.1817,-0.1816,-0.1711,-0.1684,-0.1743,-0.1781,-0.1781,-0.1781,-0.1781,-0.1781,0,-0.1404,-0.1463,-0.1496,-0.1515,-0.1578,-0.161,-0.1648,-0.1703,-0.1731,-0.1786,-0.1806,-0.1838,-0.1853,-0.1849,-0.1837,-0.184,-0.1825,-0.1822,-0.172,-0.1713,-0.1789,-0.1786,-0.1817,-0.1817,-0.1817,-0.1817,-0.1817,0,-0.1382,-0.1411,-0.1487,-0.1502,-0.1543,-0.1598,-0.1643,-0.1686,-0.1741,-0.1764,-0.1816,-0.1825,-0.1858,-0.1854,-0.1839,-0.1774,-0.1826,-0.1717,-0.1697,-0.1808,-0.1807,-0.1789,-0.1786,-0.1816,-0.1816,-0.1816,-0.1816,0,-0.1326,-0.138,-0.142,-0.1498,-0.1526,-0.1554,-0.1633,-0.1656,-0.1723,-0.1752,-0.1769,-0.1818,-0.181,-0.1823,-0.181,-0.1759,-0.1718,-0.1683,-0.1791,-0.178,-0.1602,-0.1602,-0.1554,-0.1551,-0.1548,-0.1545,-0.1543,0,-0.1296,-0.1312,-0.1402,-0.1426,-0.1464,-0.1521,-0.1551,-0.1633,-0.1653,-0.1728,-0.1724,-0.1754,-0.1771,-0.1665,-0.1701,-0.1655,-0.1642,-0.1606,-0.161,-0.1589,-0.1575,-0.158,-0.1584,-0.1538,-0.1537,-0.1536,-0.1536,0,-0.123,-0.1276,-0.1308,-0.1355,-0.1398,-0.1435,-0.1487,-0.149,-0.1573,-0.1655,-0.1628,-0.1616,-0.1605,-0.1589,-0.1566,-0.1538,-0.1621,-0.1574,-0.158,-0.1583,-0.1568,-0.1559,-0.1567,-0.1525,-0.1527,-0.1528,-0.1528,0,-0.1184,-0.1188,-0.1235,-0.1261,-0.1316,-0.1319,-0.1364,-0.1379,-0.1409,-0.15,-0.1489,-0.1524,-0.1584,-0.1528,-0.1508,-0.1472,-0.1453,-0.1404,-0.1419,-0.1431,-0.1408,-0.1372,-0.1244,0,0,0,0,0,-0.1121,-0.111,-0.1133,-0.1153,-0.1202,-0.1226,-0.1302,-0.1349,-0.1436,-0.138,-0.143,-0.1414,-0.1385,-0.1408,-0.1344,-0.1456,-0.1461,-0.1377,-0.1413,-0.1466,-0.1478,-0.1464,0,0,0,0,0,0,-0.1081,-0.1096,-0.1093,-0.105,-0.1044,-0.1078,-0.112,-0.1185,-0.1162,-0.126,-0.1248,-0.1328,-0.1317,-0.1392,-0.1311,-0.1319,-0.1314,-0.1414,-0.141,-0.1459,-0.147,-0.148,-0.147,0,0,0,0,0]},{"header":{"parameterUnit":"m.s-1","parameterCategory":2,"la1":30.2991,"la2":30.254,"lo1":-89.0895,"lo2":-89.0444,"dy":0.0017,"dx":0.0017,"nx":28,"ny":28,"refTime":"2024-11-29T09:00:00:Z","depth":"4","parameterNumber":3,"parameterNumberName":"V-component_of_CURRENTS"},"data":[0,0,0,0,0,0,0,0,0,0,0,0,0,0,0,0,0,0,0,0,0,0,0,0,0,0,0,0,0,0,0,0,0,0,0,0,0,0,0,0,0,0,0,0,0,0,0,0,0,0,0,0,0,0,0,0,0,0,-0.0161,-0.0161,0,-0.0116,-0.0115,-0.0114,-0.0088,-0.0088,-0.0088,-0.0088,-0.0024,-0.0023,-0.0021,0,0,0,0,0,0,0,0,0,0,0,0,0,-0.0192,-0.0192,-0.0161,-0.0161,-0.016,-0.0116,-0.0115,-0.0114,-0.0088,-0.0088,-0.0088,-0.0088,-0.0025,-0.0023,-0.0021,0,0,0,0,0,0,0,0,0,0,0,0,0,-0.0165,-0.0192,-0.0161,-0.0142,-0.014,-0.0116,-0.0115,-0.0114,-0.0088,-0.0088,-0.0088,-0.0088,-0.0025,-0.0023,-0.0021,-0.0006,0,0,-0.0013,-0.0012,0,0,0,0,0,0,0,0,-0.0167,-0.0164,-0.0145,-0.0143,-0.0141,-0.0108,-0.0103,-0.0077,-0.0088,-0.0107,-0.0088,-0.0088,-0.0051,-0.0047,-0.0037,-0.0003,-0.0001,-0.0013,-0.0011,-0.001,-0.0009,0,0,0,0,0,0,0,-0.0169,-0.0166,-0.0142,-0.0145,-0.0142,-0.0125,-0.0121,-0.0098,-0.0079,-0.0105,-0.0103,-0.0099,-0.005,-0.004,-0.0036,0.0,-0.0013,-0.0011,-0.0009,-0.0008,0.0034,0.0034,0,0,0,0,0,0,-0.0178,-0.0168,-0.0144,-0.0141,-0.0155,-0.0124,-0.012,-0.0118,-0.0079,-0.0074,-0.01,-0.0098,-0.0044,-0.0038,-0.0033,-0.0032,-0.001,-0.0008,-0.0006,0.0034,0.0034,0.0033,0,0,0,0,0,0,-0.0179,-0.0176,-0.0146,-0.0154,-0.0149,-0.0124,-0.0122,-0.0117,-0.0112,-0.0076,-0.007,-0.01,-0.0044,-0.0037,-0.0019,-0.0029,-0.0007,-0.0004,0.0035,0.0034,0.0034,-0.0018,0,0,0,0,0,0,-0.018,-0.0177,-0.0182,-0.0155,-0.0149,-0.0138,-0.0122,-0.0116,-0.011,-0.0108,-0.0074,-0.0068,-0.0043,-0.0023,-0.0016,-0.0025,-0.0003,0.0035,0.0034,0.0034,-0.0016,-0.002,-0.0024,0,0,0,0,0,-0.0181,-0.0186,-0.0182,-0.0179,-0.0155,-0.0138,-0.0134,-0.0115,-0.011,-0.011,-0.0088,-0.0069,-0.0023,-0.0021,-0.0013,-0.0021,0.0036,0.0035,0.0034,-0.0014,-0.0019,-0.0024,0,0,0,0,0,0,-0.0199,-0.0183,-0.0178,-0.0178,-0.0164,-0.0134,-0.0133,-0.0121,-0.0104,-0.0105,-0.0071,-0.0063,-0.0052,-0.0029,-0.0028,-0.0011,0.0008,0.0009,-0.003,-0.0035,-0.0039,-0.0049,-0.0,0,0,0,0,0,-0.0207,-0.0209,-0.0188,-0.0189,-0.0184,-0.0162,-0.0154,-0.0143,-0.0122,-0.0115,-0.0091,-0.0068,-0.0048,-0.0037,-0.0015,-0.0004,0.0017,-0.0005,-0.0009,-0.0012,-0.0015,0.0005,0.0003,0.0031,0.0031,0.0031,0,0,-0.0214,-0.0206,-0.0207,-0.0194,-0.0182,-0.0181,-0.0157,-0.0151,-0.0151,-0.011,-0.0105,-0.0081,-0.0048,-0.0038,-0.0031,-0.002,-0.001,-0.0014,-0.0017,-0.0017,0.0004,0.0002,-0.0001,0.003,0.003,0.003,0,0,-0.023,-0.0224,-0.0232,-0.0225,-0.0214,-0.0199,-0.0201,-0.0178,-0.017,-0.0159,-0.0134,-0.0116,-0.0085,-0.0064,-0.0049,-0.0062,-0.0033,-0.0058,-0.0085,-0.0065,-0.0067,-0.0069,-0.0049,-0.0048,-0.0059,-0.006,-0.006,0,-0.0241,-0.0249,-0.0231,-0.0238,-0.0238,-0.0212,-0.0222,-0.0207,-0.0182,-0.0178,-0.0166,-0.0125,-0.0098,-0.0083,-0.0088,-0.0072,-0.0056,-0.007,-0.0071,-0.0072,-0.0073,-0.0051,-0.005,-0.0062,-0.0062,-0.0062,-0.0061,0,-0.0261,-0.0271,-0.0275,-0.0279,-0.0274,-0.0278,-0.0259,-0.0255,-0.0242,-0.0226,-0.0211,-0.0172,-0.0147,-0.0137,-0.0115,-0.0109,-0.0095,-0.008,-0.006,-0.0079,-0.0055,-0.0053,-0.0066,-0.0065,-0.0064,-0.0064,0,0,-0.0277,-0.029,-0.0293,-0.0308,-0.0299,-0.0299,-0.03,-0.0293,-0.0297,-0.0269,-0.0269,-0.0232,-0.021,-0.0192,-0.0161,-0.0142,-0.0133,-0.0118,-0.0116,-0.0102,-0.0091,-0.0071,-0.0066,-0.012,-0.0119,-0.0119,-0.0073,0,-0.0301,-0.0332,-0.0327,-0.0355,-0.037,-0.0352,-0.0356,-0.0345,-0.0329,-0.0319,-0.028,-0.0265,-0.0231,-0.0221,-0.0197,-0.0146,-0.0129,-0.0146,-0.0071,-0.0069,-0.0052,-0.0063,-0.0119,-0.0071,-0.007,-0.007,-0.007,0,-0.0323,-0.0343,-0.0379,-0.0403,-0.0407,-0.0418,-0.0424,-0.0423,-0.0398,-0.0384,-0.0359,-0.0324,-0.0288,-0.0259,-0.0186,-0.02,-0.0154,-0.0114,-0.0111,-0.0072,-0.0045,-0.0047,-0.0065,-0.0065,-0.0066,-0.0066,-0.0066,0,-0.0348,-0.0379,-0.0415,-0.0422,-0.0439,-0.0454,-0.046,-0.0446,-0.0448,-0.0425,-0.0418,-0.037,-0.0342,-0.0281,-0.0191,-0.0193,-0.0107,-0.0097,-0.0037,-0.0035,-0.0044,-0.0042,-0.0054,-0.0055,-0.0055,-0.0055,-0.0055,0,-0.0372,-0.0401,-0.0434,-0.0453,-0.0495,-0.0491,-0.0521,-0.0514,-0.0504,-0.0505,-0.0456,-0.0438,-0.0347,-0.0282,-0.0207,-0.0109,-0.0117,-0.0043,-0.0023,-0.0066,-0.0068,-0.0042,-0.0041,-0.0053,-0.0053,-0.0054,-0.0054,0,-0.039,-0.0411,-0.0457,-0.0494,-0.051,-0.0539,-0.0567,-0.0582,-0.0563,-0.0562,-0.0556,-0.0489,-0.0401,-0.0301,-0.0192,-0.0127,-0.0038,-0.0002,-0.0055,-0.0037,0.0022,0.002,0.0059,0.006,0.006,0.0061,0.0062,0,-0.0399,-0.0425,-0.049,-0.0526,-0.0547,-0.0589,-0.0615,-0.0614,-0.0622,-0.0588,-0.0586,-0.0508,-0.045,-0.0279,-0.0176,-0.0031,-0.0009,0.0035,0.0024,0.0017,0.0033,0.003,0.0026,0.0063,0.0064,0.0064,0.0064,0,-0.0416,-0.0444,-0.0482,-0.0558,-0.0604,-0.0649,-0.0682,-0.0689,-0.0676,-0.0662,-0.06,-0.0508,-0.0405,-0.0275,-0.0155,-0.0054,0.0004,0.0044,0.0043,0.0033,0.0023,0.0038,0.0033,0.0067,0.0067,0.0066,0.0066,0,-0.0425,-0.0459,-0.0517,-0.0579,-0.0643,-0.0689,-0.0705,-0.0704,-0.0703,-0.0653,-0.0634,-0.0516,-0.0449,-0.0287,-0.0179,-0.0071,-0.005,-0.0021,-0.0019,-0.0021,-0.0053,-0.0078,-0.005,0,0,0,0,0,-0.0427,-0.047,-0.0535,-0.0605,-0.0668,-0.0703,-0.0739,-0.0743,-0.0727,-0.0685,-0.0654,-0.0554,-0.038,-0.031,-0.0199,-0.0172,-0.004,-0.004,-0.0008,0.0084,0.0081,0.0059,0,0,0,0,0,0,-0.0432,-0.0493,-0.0531,-0.0611,-0.0659,-0.0722,-0.0746,-0.0739,-0.0707,-0.0676,-0.0585,-0.0526,-0.0363,-0.0441,-0.0196,-0.0164,-0.0128,0.0042,0.0045,0.0086,0.0083,0.008,0.0056,0,0,0,0,0]}]]